Weather History for Jonesboro, AR

Change the Weather History Date:

Monday, September 3, 2012

  Actual Average Record
Temperature  
Mean Temperature 84 °F 76 °F  
Max Temperature 94 °F 87 °F 106 °F (1925)
Min Temperature 74 °F 66 °F 51 °F (1952)
Degree Days  
Heating Degree Days 0 0  
Month to date heating degree days 0 0  
Since 1 July heating degree days 0 0  
Cooling Degree Days 19 12  
Month to date cooling degree days 54 36  
Year to date cooling degree days 2093 1582  
Growing Degree Days 33 (Base 50)    
Moisture  
Dew Point 72 °F    
Average Humidity 71    
Maximum Humidity 93    
Minimum Humidity 49    
Precipitation  
Precipitation 0.00 in 0.09 in 2.74 in (1936)
Month to date precipitation 0.96 0.26  
Year to date precipitation 20.38 31.37  
Snow  
Snow 0.00 in - - ()
Month to date snowfall 0.0  
Since 1 July snowfall 0.0  
Since 1 September snowfall 0.0  
Snow Depth 0.00 in    
Sea Level Pressure  
Sea Level Pressure 29.86 in    
Wind  
Wind Speed 6 mph (WNW)    
Max Wind Speed 14 mph    
Max Gust Speed 22 mph    
Visibility 10 miles    
Events      
T = Trace of Precipitation, MM = Missing Value Source: NWS Daily Summary

Daily Weather History Graph

Daily Weather History Graph

Search for Another Location

Airport:

Trip Planner

Search our weather history database for the weather conditions in past years. The results will help you decide how hot, cold, wet, or windy it might be!

Date:

Astronomy

Sep. 03, 2012 Rise Set
Actual Time 6:36 AM CDT 7:26 PM CDT
Civil Twilight 6:10 AM CDT 7:52 PM CDT
Nautical Twilight 5:39 AM CDT 8:23 PM CDT
Astronomical Twilight 5:07 AM CDT 8:54 PM CDT
Moon 8:55 PM CDT (9/3) 9:36 AM CDT (9/3)
Length of Visible Light 13h 42m
Length of Day
12h 50m
Waning Gibbous, 90% of the Moon is Illuminated
Sep 3
Waning Gibbous
Sep 8
Last Quarter
Sep 15
New
Sep 22
First Quarter
Sep 29
Full

Hourly Weather History & Observations

Time (CDT) Temp. Heat Index Dew Point Humidity Pressure Visibility Wind Dir Wind Speed Gust Speed Precip Events Conditions
12:53 AM 73.9 °F - 71.1 °F 91% 29.86 in 10.0 mi Calm Calm - N/A   Partly Cloudy
1:53 AM 75.0 °F - 71.1 °F 87% 29.85 in 10.0 mi Calm Calm - N/A   Partly Cloudy
2:53 AM 75.0 °F - 71.1 °F 87% 29.84 in 10.0 mi West 4.6 mph - N/A   Clear
3:53 AM 75.0 °F - 70.0 °F 84% 29.84 in 10.0 mi WNW 4.6 mph - N/A   Clear
4:53 AM 75.0 °F - 70.0 °F 84% 29.85 in 10.0 mi West 6.9 mph - N/A   Clear
5:53 AM 75.0 °F - 71.1 °F 87% 29.86 in 10.0 mi WNW 5.8 mph - N/A   Clear
6:53 AM 75.0 °F - 70.0 °F 84% 29.88 in 10.0 mi WNW 5.8 mph - N/A   Clear
7:53 AM 78.1 °F - 70.0 °F 76% 29.88 in 10.0 mi WNW 4.6 mph - N/A   Clear
8:53 AM 79.0 °F - 71.1 °F 77% 29.89 in 10.0 mi WNW 8.1 mph - N/A   Clear
9:53 AM 82.0 °F 86.7 °F 72.0 °F 71% 29.90 in 10.0 mi WNW 9.2 mph - N/A   Clear
10:53 AM 84.9 °F 91.4 °F 73.0 °F 67% 29.90 in 10.0 mi Variable 4.6 mph - N/A   Clear
11:53 AM 87.1 °F 93.6 °F 72.0 °F 61% 29.88 in 10.0 mi WSW 9.2 mph - N/A   Clear
12:53 PM 89.1 °F 96.0 °F 72.0 °F 57% 29.86 in 10.0 mi West 6.9 mph - N/A   Clear
1:53 PM 91.0 °F 98.2 °F 72.0 °F 53% 29.86 in 10.0 mi NW 5.8 mph 18.4 mph N/A   Clear
2:53 PM 91.0 °F 98.2 °F 72.0 °F 53% 29.85 in 10.0 mi West 9.2 mph - N/A   Partly Cloudy
3:53 PM 93.0 °F 100.1 °F 71.1 °F 49% 29.83 in 10.0 mi Variable 5.8 mph - N/A   Partly Cloudy
4:53 PM 93.0 °F 100.1 °F 71.1 °F 49% 29.82 in 10.0 mi West 4.6 mph - N/A   Partly Cloudy
5:53 PM 93.0 °F 100.1 °F 71.1 °F 49% 29.82 in 10.0 mi West 5.8 mph - N/A   Clear
6:53 PM 91.0 °F 100.4 °F 73.9 °F 57% 29.81 in 10.0 mi Variable 3.5 mph - N/A   Partly Cloudy
7:53 PM 82.9 °F 90.2 °F 75.0 °F 77% 29.83 in 10.0 mi ENE 8.1 mph - N/A   Clear
8:53 PM 80.1 °F 84.2 °F 73.0 °F 79% 29.85 in 10.0 mi ENE 6.9 mph - N/A   Clear
9:53 PM 79.0 °F - 72.0 °F 79% 29.87 in 10.0 mi NE 6.9 mph - N/A   Clear
10:53 PM 79.0 °F - 72.0 °F 79% 29.87 in 10.0 mi NE 3.5 mph - N/A   Clear
11:53 PM 75.9 °F - 72.0 °F 87% 29.88 in 10.0 mi ENE 3.5 mph - N/A   Clear